Flag for Iceland Weather past 2 weeks in Reykjavik, Iceland

Now
59 °F

Scattered clouds.


Feels Like: 57 °F
Forecast: N/A
Wind: 12 mph from Southeast

Location: Reykjavik Airport

Current Time: Aug 27, 2014 at 2:58:46 PM

Latest Report: Aug 27, 2014 at 2:00 PM


Visibility: N/A

Pressure: 29.77 "Hg

Humidity: 63%

Dew point: 46 °F

Location of ReykjavikLocation

Historic Weather in Reykjavik — Graph

°F

Reykjavik temperature yesterday

Maximum temperature yesterday: 57 °F (at 1:00 PM)
Minimum temperature yesterday: 54 °F (at 12:00 AM)
Average temperature yesterday: 55 °F

Past Weeks' High & Low Weather Summary

 TemperatureHumidityPressure
High61 °F (Aug 12, 2:00 PM)94% (Aug 19, 6:00 AM)30.30 "Hg (Aug 19, 6:00 AM)
Low43 °F (Aug 13, 6:00 AM)44% (Aug 13, 2:00 PM)29.53 "Hg (Aug 15, 5:00 PM)
Average52 °F74%29.94 "Hg
* Reported Aug 12 1:00 PM — Aug 27 1:00 PM, Reykjavik, Weather by CustomWeather, © 2014

Note: Actual official high and low records may vary slightly from our data, if they occured in-between our weather recording intervals... More about our weather records

Advertising

Reykjavik weather history for previous 24 hours

 ConditionsComfort  
Time TempWeatherWind HumidityBarometerVisibility
1:00 PM
Aug 27
57 °FBroken clouds.16 mph72%29.80 "HgN/A
12:00 PM57 °FSprinkles. Scattered clouds.12 mph72%29.77 "HgN/A
11:00 AM57 °FScattered clouds.15 mph67%29.77 "HgN/A
10:00 AM57 °FBroken clouds.15 mph72%29.77 "HgN/A
9:00 AM55 °FBroken clouds.14 mph82%29.77 "HgN/A
8:00 AM55 °FBroken clouds.10 mph82%29.77 "HgN/A
7:00 AM55 °FBroken clouds.9 mph82%29.74 "HgN/A
6:00 AM55 °FBroken clouds.8 mph82%29.74 "HgN/A
5:00 AM54 °FPassing clouds.12 mph88%29.74 "HgN/A
4:00 AM54 °FMostly cloudy.12 mph88%29.74 "HgN/A
3:00 AM55 °FMostly cloudy.16 mph82%29.74 "HgN/A
2:00 AM54 °FMostly cloudy.12 mph88%29.74 "HgN/A
1:00 AM55 °FOvercast.10 mph88%29.74 "HgN/A
12:00 AM54 °FDrizzle. Mostly cloudy.13 mph94%29.74 "HgN/A
11:00 PM
Aug 26
55 °FMostly cloudy.12 mph82%29.74 "HgN/A
10:00 PM55 °FPartly cloudy.13 mph82%29.74 "HgN/A
9:00 PM55 °FPartly sunny.13 mph82%29.74 "HgN/A
8:00 PM55 °FBroken clouds.14 mph88%29.74 "HgN/A
7:00 PM55 °FSprinkles. Broken clouds.16 mph88%29.74 "Hg6 mi
6:00 PM55 °FSprinkles. Broken clouds.13 mph88%29.71 "HgN/A
5:00 PM57 °FMostly cloudy.14 mph82%29.71 "HgN/A
4:00 PM57 °FMore clouds than sun.14 mph82%29.71 "HgN/A
3:00 PM57 °FLight rain. Cloudy.15 mph82%29.71 "HgN/A
2:00 PM55 °FLight rain. Mostly cloudy.15 mph88%29.71 "HgN/A
Weather by CustomWeather, © 2014

See weather overviewHow to use our weather pages